Regional Weather Roundup
Issued by NWS

Home | Current Version | Previous Version | Text Only | Print | Product List | Glossary Off
Versions: 1 2 3 4 5 6 7 8 9 10 11 12 13 14 15 16 17 18 19 20 21 22 23 24 25 26 27 28 29 30 31 32 33 34 35 36 37 38 39 40 41 42 43 44 45 46 47 48 49 50

000
ASUS43 KIND 221509
RWRIN

WEATHER ROUNDUP FOR INDIANA
NATIONAL WEATHER SERVICE INDIANAPOLIS IN
1000 AM EST SUN JAN 22 2017

NOTE: "FAIR" INDICATES FEW OR NO CLOUDS BELOW 12,000 FEET WITH NO
SIGNIFICANT WEATHER AND/OR OBSTRUCTIONS TO VISIBILITY.

* - STATION DOES NOT REPORT WEATHER SUCH AS PRECIPITATION OR FOG.

+ - STATION NOT QUALITY CONTROLLED BY THE NATIONAL WEATHER SERVICE.
    USE DATA WITH CAUTION...ESPECIALLY DEWPOINT AND RELATIVE
    HUMIDITY OBSERVATIONS.

INZ001>003-010>013-019-020-221600-
NORTHWEST INDIANA

CITY           SKY/WX    TMP DP  RH WIND       PRES   REMARKS
GARY /AIRPORT/ FOG       41  41 100 CALM      29.64R VSB 1/4
KNOX *+        CLOUDY    36  32  87 NE7       29.62R VSB 1/4
LA PORTE +     SNOW      37  37 100 N5        29.64R VSB<1/4
MICHIGAN CITY+ FOG       37  37 100 NE3       29.64R VSB 1/4
MONTICELLO +   CLOUDY    41  39  95 CALM      29.60R FOG
RENSSELAER +   FOG       36  36 100 N7        29.62R VSB<1/4
VALPARAISO     FOG       39  39 100 N7        29.63R VSB<1/4

$$

LMZ046-743>745-221600-
SOUTHERN LAKE MICHIGAN

STATION/POSITION TIME  TEMP    WIND        PRES    WAVE
                       AIR SEA DIR/SP/G            HT
                 (UTC) (F)     (DEG/KT/KT) (MB)    (FT)
BURNS HARBOR     1440   36      80/  7/  9 1004.4R
MICHIGAN CITY    1440   36      40/  9/ 10   N/A

$$

INZ004-005-014>016-021>024-221600-
NORTH CENTRAL INDIANA

CITY           SKY/WX    TMP DP  RH WIND       PRES   REMARKS
ELKHART        FOG       39  39 100 CALM      29.63R VSB 1/2
GOSHEN         FOG       42  40  92 CALM      29.62R VSB<1/4
LOGANSPORT +   CLOUDY    45  45 100 CALM      29.61R
PERU/GRISSOM   CLOUDY    49  49 100 SE6       29.58R
ROCHESTER +    CLOUDY    41  41 100 N3        29.62R FOG
SOUTH BEND     FOG       37  37 100 N5        29.64R VSB<1/4
WARSAW +       FOG       37  37 100 CALM      29.62R VSB<1/4

$$

INZ006>009-017-018-025>027-221600-
NORTHEAST INDIANA

CITY           SKY/WX    TMP DP  RH WIND       PRES   REMARKS
ANGOLA *+      CLOUDY    37  36  93 CALM      29.60S VSB 0
AUBURN +       FOG       43  41  93 CALM      29.61S VSB 1
FORT WAYNE     CLOUDY    50  47  89 S3        29.61R
HUNTINGTON +   CLOUDY    49  47  95 CALM      29.60S
KENDALLVILLE + FOG       43  43 100 CALM      29.61R VSB 1/4

$$

INZ028-029-035-036-043>045-051>053-221600-
WEST CENTRAL INDIANA

CITY           SKY/WX    TMP DP  RH WIND       PRES   REMARKS
CRAWFORDSVL +  CLOUDY    49  49 100 SE5       29.58S
GREENCASTLE +  CLOUDY    50  48  93 E3        29.58S FOG
LAFAYETTE      CLOUDY    43  43 100 CALM      29.60R FOG
TERRE HAUTE    CLOUDY    51  48  89 NE5       29.57S

$$

INZ030>032-037>040-046>048-054>057-064-065-221600-
CENTRAL INDIANA

CITY           SKY/WX    TMP DP  RH WIND       PRES   REMARKS
CP ATTERBURY + CLOUDY    45  43  93 CALM      29.58S VSB<1/4
COLUMBUS       SUNNY     46  46 100 N6        29.57S FOG
FRANKFORT +    CLOUDY    53  50  90 SE7       29.60S
GREENWOOD *+   MOSUNNY   53  52  95 E5        29.58S
INDIANAPOLIS   CLOUDY    52  49  89 E3        29.57S
-EAGLE CREEK   CLOUDY    51  49  92 CALM      29.57F
KOKOMO +       CLOUDY    48  46  93 CALM      29.60R
MARION +       CLOUDY    50  46  87 SE7       29.60R
MT COMFORT *+  CLOUDY    52  48  87 E6        29.59S
SHELBYVILLE    MOSUNNY   53  49  86 E8        29.56S
ZIONSVILLE +   CLOUDY    50  48  93 E3        29.59S

$$

INZ033-034-041-042-049-050-058-059-221600-
EAST CENTRAL INDIANA

CITY           SKY/WX    TMP DP  RH WIND       PRES   REMARKS
MUNCIE         CLOUDY    53  48  83 E6        29.59S

$$

INZ060-061-067>069-081>083-085>088-221600-
SOUTHWEST INDIANA

CITY           SKY/WX    TMP DP  RH WIND       PRES   REMARKS
EVANSVILLE     CLOUDY    53  49  86 NE3       29.50F
HUNTINGBURG *+ PTSUNNY   52  49  89 NE10      29.51F
WASHINGTON +   CLOUDY    49  47  93 CALM      29.53F

$$

INZ062-063-066-070>080-084-089>092-221600-
SOUTH CENTRAL AND SOUTHEAST INDIANA

CITY           SKY/WX    TMP DP  RH WIND       PRES   REMARKS
BLOOMINGTON    CLOUDY    50  47  89 CALM      29.55F FOG
MADISON *+     CLOUDY    52  50  93 NE7       29.57S
NORTH VERNON + CLOUDY   N/A N/A N/A NE7       29.56S
SEYMOUR +      CLOUDY    50  50 100 CALM      29.55F

$$




USA.gov is the U.S. government's official web portal to all federal, state and local government web resources and services.